Simultaneous Nadir Overpasses (SNOs) Predictions

Prediction of SNOs between AURA and NPP Satellite Orbit:

Table of predicted SNOs for the next 14.0 days since TLE Epoch: 4/1/2016
Index Date (AURA) Time (AURA) Lat,Lon (AURA) SZA (AURA ) Date (NPP) Time (NPP) Lat,Lon (NPP) SZA (NPP ) Distance(km) Time Diff (sec)
1 04/03/2016 19:09:00 -79.38, -31.20 92.91 04/03/2016 19:08:41 -79.38, -31.20 92.90 0.01 19
2 04/03/2016 19:58:18 79.68, 138.52 86.65 04/03/2016 19:59:16 79.68, 138.62 86.58 2.02 58
3 04/06/2016 10:36:06 79.22, -83.97 86.30 04/06/2016 10:34:56 79.22, -83.93 86.34 0.86 70
4 04/06/2016 11:25:28 -79.43, 85.00 94.01 04/06/2016 11:25:36 -79.42, 84.90 94.00 2.25 8
5 04/09/2016 02:52:32 79.30, 32.40 85.17 04/09/2016 02:51:49 79.30, 32.40 85.20 0.10 43
6 04/09/2016 03:41:51 -79.62,-157.80 95.31 04/09/2016 03:42:25 -79.62,-157.65 95.36 3.10 34
7 04/11/2016 19:08:58 79.41, 148.98 84.02 04/11/2016 19:08:42 79.41, 148.99 84.03 0.22 16
8 04/11/2016 19:58:20 -79.61, -41.97 96.30 04/11/2016 19:59:22 -79.60, -42.12 96.31 3.10 62
9 04/14/2016 10:36:06 -79.21, 95.92 96.67 04/14/2016 10:35:00 -79.20, 95.88 96.61 0.97 66




NCC Satellite Simultaneous Nadir Overpasses (SNOs) Prediction Service
